{"data":{"norad_id":67979,"intl_designator":"2026-038U","name":"STARLINK-36359","alt_names":[],"object_type":"PAYLOAD","status":"ACTIVE","operator":null,"country":"US","launch_date":"2026-02-25","launch_site_code":"AFWTR","launch_vehicle":null,"mission":null,"orbit_class":"UNKNOWN","rcs_meters":null,"size_class":null,"mass_kg":null,"dimensions":null,"purposes":["comms"],"wikipedia_slug":null,"has_3d_model":false,"image_url":null,"decayed_at":null,"tle_current":{"epoch":"2026-09-19T23:13:09.741504Z","epoch_age_seconds":105583,"freshness":"FRESH","line1":"1 67979U 26038U   26262.96747386  .00010149  00000+0  31615-3 0  9998","line2":"2 67979  97.2855 271.3443 0001661  89.4166 270.7267 15.33455021 33015","mean_motion":15.33455021,"eccentricity":0.0001661,"inclination_deg":97.2855,"raan_deg":271.3443,"arg_perigee_deg":89.4166,"mean_anomaly_deg":270.7267,"bstar":0.00031615,"rev_number":3301,"period_min":93.90559098766,"perigee_km":464.37662887021,"apogee_km":466.65008951953,"semimajor_km":6843.6503591949,"source":"CELESTRAK","updated_at":"2026-09-20T09:00:43.732925Z"}}}